When you browse on this site, cookies collect data to enhance your experience and personalize the content and advertising you see.
Visit our Privacy Policy to learn more. By continuing to use the site, you agree to this use of cookies and data.
  • In Hungary
  • List of Countries
  • For 7 days
  • Water Temperature
  • Satellite Maps
  • Weather Map
  • News
  • Weather Widgets
  • user-avatar
    Login

    Hourly Weather Calgari

    Today, 19 December, Wednesday

    Time Temperature Precipitation Wind Pressure Humidity
    00:00 +9°C° 0 mm 1 mps 767 mmHg 81%
    01:00 +9°C° 0 mm 1 mps 767 mmHg 80%
    02:00 +9°C° 0 mm 1 mps 767 mmHg 81%
    03:00 +8°C° 0 mm 2 mps 767 mmHg 81%
    04:00 +8°C° 0 mm 2 mps 766 mmHg 82%
    05:00 +8°C° 0 mm 2 mps 766 mmHg 83%
    06:00 +8°C° 0 mm 2 mps 766 mmHg 84%
    07:00 +8°C° 0 mm 2 mps 766 mmHg 86%
    08:00 +9°C° 0 mm 3 mps 766 mmHg 81%
    09:00 +11°C° 0 mm 3 mps 766 mmHg 75%
    10:00 +12°C° 0 mm 3 mps 766 mmHg 70%
    11:00 +14°C° 0 mm 3 mps 766 mmHg 67%
    12:00 +16°C° 0 mm 3 mps 766 mmHg 63%
    13:00 +17°C° 0 mm 4 mps 766 mmHg 59%
    14:00 +16°C° 0 mm 3 mps 765 mmHg 63%
    15:00 +16°C° 0 mm 3 mps 765 mmHg 67%
    16:00 +16°C° 0 mm 3 mps 765 mmHg 71%
    17:00 +13°C° 0 mm 3 mps 765 mmHg 77%
    18:00 +12°C° 0 mm 3 mps 765 mmHg 84%
    19:00 +11°C° 0 mm 3 mps 765 mmHg 90%
    20:00 +11°C° 0 mm 3 mps 764 mmHg 90%
    21:00 +11°C° 0 mm 4 mps 764 mmHg 90%
    22:00 +11°C° 0 mm 4 mps 764 mmHg 90%
    23:00 +11°C° 0 mm 4 mps 764 mmHg 91%

    Tomorrow, 20 December, Thursday

    Time Temperature Precipitation Wind Pressure Humidity
    00:00 +11°C° 0 mm 4 mps 764 mmHg 92%
    01:00 +12°C° 0 mm 4 mps 764 mmHg 93%
    02:00 +12°C° 0 mm 4 mps 764 mmHg 93%
    03:00 +11°C° 0 mm 4 mps 764 mmHg 94%
    04:00 +11°C° 0 mm 4 mps 764 mmHg 94%
    05:00 +11°C° 0 mm 4 mps 765 mmHg 92%
    06:00 +11°C° 0 mm 4 mps 765 mmHg 91%
    07:00 +11°C° 0 mm 4 mps 765 mmHg 90%
    08:00 +12°C° 0 mm 4 mps 766 mmHg 84%
    09:00 +13°C° 0 mm 4 mps 766 mmHg 78%
    10:00 +14°C° 0 mm 4 mps 766 mmHg 72%
    11:00 +14°C° 0 mm 4 mps 766 mmHg 67%
    12:00 +15°C° 0 mm 4 mps 766 mmHg 62%
    13:00 +17°C° 0 mm 4 mps 766 mmHg 57%
    14:00 +15°C° 0 mm 4 mps 766 mmHg 59%
    15:00 +15°C° 0 mm 4 mps 766 mmHg 61%
    16:00 +14°C° 0 mm 4 mps 766 mmHg 64%
    17:00 +13°C° 0 mm 4 mps 767 mmHg 69%
    18:00 +12°C° 0 mm 4 mps 767 mmHg 75%
    19:00 +11°C° 0 mm 4 mps 768 mmHg 80%
    20:00 +11°C° 0 mm 3 mps 768 mmHg 81%
    21:00 +10°C° 0 mm 3 mps 768 mmHg 81%
    22:00 +10°C° 0 mm 3 mps 768 mmHg 81%
    23:00 +10°C° 0 mm 3 mps 769 mmHg 82%

    Day after tomorrow, 21 December, Friday

    Time Temperature Precipitation Wind Pressure Humidity
    00:00 +8°C° 0 mm 4 mps 769 mmHg 83%
    01:00 +8°C° 0 mm 4 mps 769 mmHg 83%
    02:00 +8°C° 0 mm 4 mps 769 mmHg 84%
    03:00 +7°C° 0 mm 4 mps 769 mmHg 84%
    04:00 +7°C° 0 mm 4 mps 769 mmHg 85%
    05:00 +7°C° 0 mm 4 mps 770 mmHg 85%
    06:00 +7°C° 0 mm 4 mps 770 mmHg 85%
    07:00 +7°C° 0 mm 4 mps 770 mmHg 86%
    08:00 +9°C° 0 mm 3 mps 771 mmHg 80%
    09:00 +11°C° 0 mm 3 mps 771 mmHg 74%
    10:00 +12°C° 0 mm 3 mps 771 mmHg 68%
    11:00 +13°C° 0 mm 3 mps 771 mmHg 64%
    12:00 +14°C° 0 mm 4 mps 771 mmHg 60%
    13:00 +17°C° 0 mm 4 mps 771 mmHg 56%
    14:00 +15°C° 0 mm 4 mps 771 mmHg 58%
    15:00 +15°C° 0 mm 4 mps 771 mmHg 61%
    16:00 +14°C° 0 mm 4 mps 771 mmHg 64%
    17:00 +13°C° 0 mm 4 mps 771 mmHg 70%
    18:00 +11°C° 0 mm 4 mps 771 mmHg 77%
    19:00 +10°C° 0 mm 4 mps 771 mmHg 84%
    20:00 +10°C° 0 mm 4 mps 771 mmHg 86%
    21:00 +10°C° 0 mm 4 mps 771 mmHg 87%
    22:00 +8°C° 0 mm 4 mps 771 mmHg 88%
    23:00 +8°C° 0 mm 4 mps 771 mmHg 88%

    22 December, Saturday

    Time Temperature Precipitation Wind Pressure Humidity
    00:00 +8°C° 0 mm 4 mps 771 mmHg 89%
    01:00 +8°C° 0 mm 5 mps 771 mmHg 89%
    02:00 +8°C° 0 mm 5 mps 770 mmHg 89%
    03:00 +9°C° 0 mm 5 mps 770 mmHg 89%
    04:00 +9°C° 0 mm 5 mps 770 mmHg 90%
    05:00 +9°C° 0 mm 5 mps 770 mmHg 90%
    06:00 +9°C° 0 mm 5 mps 770 mmHg 90%
    07:00 +9°C° 0 mm 5 mps 770 mmHg 90%
    08:00 +12°C° 0 mm 5 mps 770 mmHg 85%
    09:00 +13°C° 0 mm 5 mps 770 mmHg 80%
    10:00 +14°C° 0 mm 6 mps 770 mmHg 75%
    11:00 +15°C° 0 mm 6 mps 770 mmHg 72%
    12:00 +16°C° 0 mm 6 mps 770 mmHg 69%
    13:00 +17°C° 0 mm 6 mps 769 mmHg 66%
    14:00 +16°C° 0 mm 6 mps 769 mmHg 69%
    15:00 +16°C° 0 mm 6 mps 769 mmHg 71%
    16:00 +16°C° 0 mm 6 mps 769 mmHg 73%
    17:00 +14°C° 0 mm 5 mps 769 mmHg 79%
    18:00 +13°C° 0 mm 5 mps 769 mmHg 85%
    19:00 +12°C° 0 mm 5 mps 769 mmHg 91%
    20:00 +12°C° 0 mm 5 mps 769 mmHg 92%
    21:00 +12°C° 0 mm 5 mps 769 mmHg 92%
    22:00 +12°C° 0 mm 5 mps 769 mmHg 92%
    23:00 +10°C° 0 mm 5 mps 769 mmHg 92%

    23 December, Sunday

    Time Temperature Precipitation Wind Pressure Humidity
    00:00 +10°C° 0 mm 5 mps 768 mmHg 91%
    01:00 +10°C° 0 mm 5 mps 768 mmHg 91%
    02:00 +10°C° 0 mm 5 mps 768 mmHg 91%
    03:00 +10°C° 0 mm 5 mps 768 mmHg 91%
    04:00 +10°C° 0 mm 5 mps 768 mmHg 91%
    05:00 +10°C° 0 mm 5 mps 768 mmHg 91%
    06:00 +10°C° 0 mm 5 mps 768 mmHg 91%
    07:00 +10°C° 0 mm 5 mps 768 mmHg 92%
    08:00 +13°C° 0 mm 5 mps 768 mmHg 87%
    09:00 +14°C° 0 mm 5 mps 768 mmHg 83%
    10:00 +15°C° 0 mm 5 mps 769 mmHg 78%
    11:00 +17°C° 0 mm 5 mps 768 mmHg 74%
    12:00 +19°C° 0 mm 5 mps 768 mmHg 69%
    13:00 +20°C° 0 mm 5 mps 768 mmHg 65%
    14:00 +19°C° 0 mm 5 mps 768 mmHg 67%
    15:00 +19°C° 0 mm 5 mps 767 mmHg 69%
    16:00 +17°C° 0 mm 5 mps 767 mmHg 71%
    17:00 +16°C° 0 mm 5 mps 767 mmHg 78%
    18:00 +14°C° 0 mm 5 mps 768 mmHg 85%
    19:00 +13°C° 0 mm 4 mps 768 mmHg 92%
    20:00 +13°C° 0 mm 4 mps 768 mmHg 92%
    21:00 +12°C° 0 mm 4 mps 768 mmHg 91%
    22:00 +12°C° 0 mm 4 mps 768 mmHg 91%
    23:00 +12°C° 0 mm 4 mps 768 mmHg 91%

    24 December, Monday

    Time Temperature Precipitation Wind Pressure Humidity
    00:00 +12°C° 0 mm 4 mps 768 mmHg 90%
    01:00 +12°C° 0 mm 4 mps 768 mmHg 90%
    02:00 +12°C° 0 mm 4 mps 768 mmHg 90%
    03:00 +12°C° 0 mm 4 mps 767 mmHg 90%
    04:00 +11°C° 0 mm 4 mps 767 mmHg 90%
    05:00 +11°C° 0 mm 4 mps 767 mmHg 89%
    06:00 +11°C° 0 mm 4 mps 767 mmHg 89%
    07:00 +11°C° 0 mm 4 mps 767 mmHg 88%
    08:00 +13°C° 0 mm 4 mps 767 mmHg 82%
    09:00 +14°C° 0 mm 4 mps 767 mmHg 77%
    10:00 +17°C° 0 mm 4 mps 767 mmHg 71%
    11:00 +18°C° 0 mm 4 mps 767 mmHg 66%
    12:00 +19°C° 0 mm 4 mps 767 mmHg 61%
    13:00 +20°C° 0 mm 5 mps 766 mmHg 56%
    14:00 +20°C° 0 mm 5 mps 766 mmHg 59%
    15:00 +19°C° 0 mm 5 mps 766 mmHg 62%
    16:00 +19°C° 0 mm 5 mps 765 mmHg 65%
    17:00 +16°C° 0 mm 5 mps 765 mmHg 72%
    18:00 +14°C° 0 mm 4 mps 765 mmHg 80%
    19:00 +13°C° 0 mm 4 mps 765 mmHg 87%
    20:00 +12°C° 0 mm 4 mps 766 mmHg 87%
    21:00 +12°C° 0 mm 4 mps 766 mmHg 86%
    22:00 +12°C° 0 mm 4 mps 766 mmHg 85%
    23:00 +12°C° 0 mm 4 mps 766 mmHg 84%
    Show more